Theta_e
336 335 336 336 337 336 336 337 336 337 337 337 338 337 335 336 335 337 339 340 340 339 337 339 340 342 342 340 342 343 340 339 339 341 343 339 336 336 337 339 342 344 345 345 344 342 338 334 331 327 325 328 329 333 339 336 327 325 325 327 330 329 328 332 338 341 341 341 339 338 339 340 339 337 337 338 336 330 324 325 328 326 325 327 328
334 335 335 335 336 336 336 337 336 336 337 337 337 337 336 336 335 337 341 342 340 339 340 341 340 342 344 343 344 346 343 339 339 339 341 339 335 335 337 338 342 345 344 344 344 341 337 332 329 325 323 325 327 331 339 340 336 331 328 329 333 334 330 329 334 339 340 341 341 339 337 338 340 339 336 336 336 335 330 325 324 325 324 327 333
332 331 334 334 335 336 335 336 336 336 336 336 337 337 336 337 336 337 341 343 342 341 342 344 343 343 345 345 346 348 347 342 339 340 340 338 335 335 336 336 340 344 343 343 342 340 337 333 329 327 324 322 322 325 334 341 342 339 334 334 337 339 338 334 333 338 341 340 341 341 339 338 338 339 338 337 336 337 336 329 326 328 329 330 334
338 331 331 332 333 335 335 336 336 336 335 335 336 336 337 339 338 336 339 344 345 344 343 344 346 344 345 346 346 347 348 343 339 341 340 337 336 335 336 335 337 340 341 341 341 339 337 335 332 330 328 325 321 320 326 334 340 341 338 336 337 339 342 340 336 335 338 340 341 341 341 340 339 339 339 338 336 335 337 335 333 333 333 333 335
347 336 329 331 332 332 333 335 335 335 335 335 335 335 339 345 346 341 336 339 345 349 347 343 344 346 344 346 347 346 345 341 338 340 340 337 335 335 335 335 337 338 339 340 340 339 337 335 334 334 333 330 326 321 321 324 330 336 337 335 334 335 338 341 341 337 335 337 339 341 342 342 341 340 338 337 337 336 336 337 336 336 335 335 336
354 343 334 331 331 331 331 332 333 334 333 334 335 337 342 351 354 351 343 337 339 347 352 347 342 344 345 345 346 346 345 342 338 337 338 337 336 335 335 336 336 337 338 339 340 339 338 336 334 334 335 335 332 327 325 323 324 327 331 332 332 332 334 336 340 341 337 333 333 337 341 342 341 341 339 337 337 338 338 337 336 336 336 336 336
359 352 343 337 332 329 330 331 331 332 332 332 335 340 345 350 355 356 354 347 339 342 352 353 344 341 344 344 345 346 345 343 340 335 335 336 337 336 335 335 336 337 338 339 339 340 339 338 336 334 334 336 335 333 331 330 329 327 327 329 330 332 336 336 338 341 340 337 333 333 338 342 341 341 340 338 338 338 339 339 339 337 336 335 334
362 358 352 346 339 331 329 330 329 330 331 331 332 337 343 348 352 356 359 356 347 341 349 354 349 341 341 344 344 345 345 345 341 337 334 335 337 337 334 334 336 338 340 340 339 342 342 340 338 336 334 335 335 335 334 334 335 334 331 331 330 331 335 339 341 341 341 341 340 337 337 340 342 342 341 341 339 337 335 336 338 339 338 338 336
362 362 357 351 345 338 334 333 331 331 332 332 332 334 338 343 348 353 358 361 356 349 349 356 355 347 341 341 343 344 345 345 343 340 336 334 337 338 336 335 334 337 344 344 339 341 345 345 343 339 337 336 336 336 336 335 336 337 337 336 335 334 335 338 342 343 341 342 342 341 339 340 342 342 341 341 338 334 332 333 334 335 336 338 338
362 361 359 353 349 345 341 339 337 336 337 336 337 336 337 340 344 348 355 361 360 356 354 358 360 357 349 343 342 344 345 345 344 342 339 336 336 338 339 338 335 337 345 346 339 338 344 346 346 344 341 340 338 336 336 336 336 337 339 339 339 339 338 339 342 343 342 343 343 342 341 341 341 341 341 341 339 336 337 337 334 334 336 337 338
361 360 360 357 353 350 346 343 342 342 341 340 340 340 340 342 344 347 352 356 358 359 358 358 360 362 360 352 346 344 344 346 345 344 343 341 339 339 341 341 339 338 341 343 338 336 341 344 346 345 343 341 340 338 336 336 337 337 339 341 342 341 340 341 343 344 343 343 344 343 342 341 341 340 340 340 340 339 339 339 337 338 339 337 337
360 359 360 359 356 352 348 346 345 345 345 344 344 343 343 343 344 346 347 350 353 356 356 354 354 358 363 362 357 349 345 345 346 345 344 343 342 342 343 344 343 340 340 341 338 334 336 340 343 343 342 341 340 339 337 336 338 338 338 340 341 341 341 341 342 344 344 344 344 343 342 341 341 340 339 339 340 340 340 339 339 338 338 337 337
360 360 360 359 355 352 349 347 346 345 346 346 347 348 346 344 345 346 347 349 350 351 352 351 350 351 357 362 363 358 352 346 345 346 346 345 344 345 345 347 346 343 342 343 339 334 333 336 339 340 341 341 340 339 338 337 338 339 339 340 341 341 342 342 342 344 345 345 344 343 342 341 341 340 340 339 339 339 339 340 339 337 335 336 336
358 359 360 358 355 353 351 348 346 346 347 349 350 349 347 345 345 346 348 350 350 350 349 350 350 348 349 355 360 361 359 354 348 346 346 347 346 346 346 348 348 347 346 345 341 335 333 334 336 337 339 340 341 340 339 338 338 339 339 340 342 342 341 342 343 344 345 345 344 344 343 342 341 340 339 338 338 339 339 339 338 337 336 336 335
357 359 359 357 355 353 351 349 348 349 349 350 349 348 347 345 346 347 348 349 349 348 349 349 350 349 347 350 355 359 360 358 355 350 348 347 347 347 347 347 348 349 350 349 344 340 338 336 335 336 337 339 340 340 339 339 338 339 340 340 342 342 342 342 342 343 344 345 345 344 344 342 341 339 339 339 339 338 337 336 337 338 336 336 335
354 357 358 357 354 353 351 350 351 350 350 349 348 347 346 345 346 347 349 351 351 351 350 349 350 351 350 349 351 353 355 357 356 354 350 348 348 348 348 348 349 350 351 351 349 346 343 340 338 337 336 337 338 339 339 339 339 339 339 340 342 344 344 342 342 343 344 345 345 345 343 342 341 340 339 339 339 337 336 336 336 336 334 332 331
352 354 356 355 355 353 351 350 349 348 348 346 344 344 345 345 347 348 349 352 354 354 353 351 351 352 353 352 350 351 353 355 355 354 352 351 349 348 348 349 349 349 350 351 352 351 348 344 342 341 339 337 336 338 339 340 340 340 340 340 343 345 345 345 344 345 346 346 347 346 343 341 341 340 339 339 338 336 337 338 338 336 334 331 330
351 351 352 353 355 354 352 350 348 347 346 344 344 347 347 348 350 351 351 353 356 357 359 360 358 356 356 357 356 355 356 356 355 353 353 353 352 350 349 349 348 349 349 349 351 352 352 351 347 346 347 344 336 335 339 339 339 340 340 341 343 344 345 345 345 346 346 347 347 346 345 342 339 338 338 337 336 335 336 338 338 337 335 334 334
352 351 352 355 357 356 356 355 353 349 348 347 348 350 350 351 353 353 352 352 355 359 362 363 363 362 360 361 361 359 359 359 357 355 354 354 354 353 352 351 349 348 349 348 349 350 352 355 353 350 352 351 340 334 338 338 338 340 340 341 343 344 344 345 346 347 347 347 347 346 345 343 340 338 336 334 333 333 334 334 334 336 336 335 335
357 355 356 357 358 358 357 355 352 349 349 349 349 349 349 351 352 352 352 354 357 361 363 363 364 365 365 365 364 362 361 362 360 358 357 355 355 354 354 353 350 349 349 349 350 349 349 355 357 352 351 352 346 338 340 339 337 339 340 340 342 343 345 346 347 347 347 346 346 345 344 342 339 337 335 332 330 331 331 330 330 333 335 335 334
361 359 357 355 355 355 352 349 346 346 348 349 349 349 350 352 355 357 359 362 364 365 365 364 364 365 365 365 365 364 364 363 362 360 358 357 356 355 355 354 351 352 354 352 351 350 348 354 358 353 349 352 349 342 340 340 338 339 340 339 341 344 346 347 347 347 347 346 346 345 343 340 338 337 336 334 331 330 329 327 327 330 334 334 333
361 360 358 355 354 355 353 351 351 352 354 355 354 354 354 357 361 363 363 364 365 365 365 364 364 364 364 364 364 364 364 364 363 362 361 359 359 358 357 357 354 354 356 355 352 351 349 353 359 356 350 350 350 344 340 339 339 339 340 339 342 345 347 348 348 348 347 346 345 344 342 341 339 339 338 337 334 330 327 326 327 329 332 333 331
362 362 361 360 359 360 361 360 361 361 362 362 360 359 359 359 361 362 361 362 365 365 365 364 363 363 363 363 363 363 363 363 363 363 362 361 361 360 360 360 358 356 356 354 352 352 351 352 357 357 353 350 349 346 341 338 338 339 340 341 343 346 348 348 348 348 347 346 345 343 342 341 340 339 338 337 335 333 330 329 329 330 331 332 331
364 364 363 362 361 362 364 365 365 365 366 364 362 361 360 359 360 360 360 362 364 364 364 364 364 364 363 362 363 362 362 363 362 362 362 362 362 362 361 360 360 358 357 356 354 356 356 355 355 356 355 353 352 349 344 340 337 338 340 342 345 348 349 349 348 348 347 346 344 343 342 341 339 338 336 335 335 335 334 333 332 331 332 332 330
367 366 364 363 361 362 363 365 366 367 366 365 363 362 361 362 363 363 363 363 364 363 363 363 363 363 363 363 363 362 362 362 362 361 361 361 361 361 361 360 360 359 358 358 357 357 358 359 359 357 355 355 355 352 347 342 338 339 342 345 347 348 349 349 348 347 346 345 343 342 340 339 338 337 336 335 334 334 334 333 332 331 331 331 329
366 365 366 365 363 363 364 365 366 367 366 365 364 364 363 364 364 364 364 363 362 363 363 363 363 363 363 363 363 363 363 362 362 362 362 362 361 361 361 360 360 359 359 359 358 357 357 358 359 358 358 357 356 354 350 345 341 341 344 346 348 349 349 349 348 347 346 345 343 341 339 338 337 336 336 335 334 334 334 333 331 330 329 329 328
363 364 366 366 364 365 365 364 365 365 365 365 364 364 364 364 364 364 364 363 363 364 363 363 363 362 362 362 362 363 363 362 363 363 362 362 362 361 361 361 360 360 360 359 359 359 358 358 358 358 358 357 357 355 352 348 344 343 346 348 349 349 349 348 347 347 346 344 341 340 338 337 337 336 336 334 334 334 333 332 331 330 329 328 327
364 365 365 366 366 366 364 363 364 364 364 363 362 362 363 363 363 363 363 363 364 364 364 365 365 364 364 364 363 363 363 363 363 363 362 362 362 361 361 361 361 361 361 361 360 359 359 358 358 357 356 356 356 355 353 350 347 345 347 349 349 348 348 348 347 346 345 343 341 339 338 337 337 336 335 334 334 333 332 332 331 329 328 327 327
365 365 365 366 366 365 364 363 362 362 361 361 361 361 362 363 363 363 363 363 363 364 364 365 364 363 363 362 363 363 363 363 363 363 362 362 361 361 360 360 360 361 361 361 361 360 360 359 358 357 356 355 355 355 354 351 348 346 347 348 348 347 347 347 346 345 344 342 340 338 338 337 337 336 335 334 334 333 332 332 331 329 327 327 326
361 361 361 363 363 364 364 363 362 362 363 363 362 360 361 362 362 361 361 362 362 362 362 362 362 361 361 360 361 361 359 359 360 360 360 361 360 360 360 360 360 361 361 361 360 359 359 358 357 356 354 352 353 355 354 352 350 346 346 348 348 346 346 347 346 344 342 340 339 338 337 337 336 335 335 334 334 333 333 331 329 326 326 327 326
355 356 356 357 358 359 359 359 359 361 361 361 361 360 360 360 360 361 361 361 361 360 360 359 358 357 356 354 352 351 348 347 347 347 348 349 349 350 351 353 354 354 355 356 357 358 359 357 354 354 352 350 350 353 353 353 352 348 346 347 347 346 345 346 346 343 341 339 338 337 337 336 335 335 334 334 334 333 331 329 327 324 325 326 327
351 351 351 352 353 354 353 353 354 354 353 353 354 355 352 349 349 350 351 350 350 349 347 345 344 342 339 337 336 336 334 333 334 334 334 334 335 335 335 337 338 338 338 342 346 351 357 357 353 351 352 351 351 351 352 353 353 349 346 346 346 345 345 346 345 341 339 339 337 336 335 334 334 335 334 333 332 331 329 327 326 324 324 325 326
349 349 348 349 349 349 348 347 347 347 347 346 346 347 345 341 340 339 337 335 333 331 331 330 330 329 329 328 328 329 329 329 329 329 329 329 330 331 331 331 332 332 331 332 334 339 346 353 354 351 350 352 353 351 350 352 352 349 346 346 346 344 344 345 343 340 339 338 336 335 334 334 334 334 333 331 329 328 326 326 326 326 325 325 325
348 347 347 347 347 346 345 344 344 343 343 343 342 341 341 340 341 341 339 337 335 333 331 331 329 327 327 328 328 328 328 328 328 327 328 329 329 329 330 330 331 331 331 331 330 330 334 342 350 352 350 351 352 351 350 350 350 348 347 346 345 344 343 342 340 339 338 337 335 334 334 334 333 333 332 329 327 326 326 327 327 326 326 325 325
342 341 341 343 344 344 342 342 340 339 340 343 342 340 338 339 340 341 340 340 340 338 338 340 337 331 326 327 328 328 327 328 328 327 327 328 328 328 329 330 331 331 331 331 332 330 329 333 341 349 350 350 350 350 349 349 348 348 346 345 344 343 341 340 338 337 337 336 334 334 334 333 333 332 331 328 326 326 326 327 327 326 325 325 324
342 342 342 343 344 342 338 335 333 332 335 340 342 341 341 340 340 339 339 340 340 338 338 342 341 334 329 328 328 327 327 327 327 327 327 327 327 327 328 329 330 331 332 332 334 334 331 328 331 339 347 349 348 349 349 348 347 348 346 344 343 343 341 338 337 336 335 335 334 333 333 332 332 331 329 327 325 325 326 327 327 326 325 325 324
346 346 346 345 345 342 336 330 327 327 332 338 341 342 342 341 340 339 339 340 340 338 338 340 339 336 334 333 329 327 328 327 327 327 327 327 327 327 328 329 330 332 334 335 334 334 333 330 327 332 341 347 347 347 348 347 346 346 345 342 342 341 339 336 335 334 334 334 333 332 331 331 330 329 327 326 325 325 326 326 326 326 325 324 323
338 339 340 342 343 343 340 336 333 334 338 341 342 341 341 341 341 340 341 341 340 339 338 338 337 338 337 334 330 328 329 327 327 328 328 327 326 327 327 328 330 332 334 334 334 333 333 331 328 327 334 343 346 346 345 345 345 344 342 340 339 338 337 336 335 334 334 333 331 329 329 329 329 328 326 325 326 326 326 326 326 325 324 323 322
335 333 333 337 341 342 341 341 340 340 341 342 341 340 340 341 341 341 341 341 341 339 339 339 338 338 337 334 331 330 328 326 327 330 330 328 327 327 328 329 331 334 334 334 334 334 333 332 330 327 330 337 344 344 343 342 342 342 340 338 337 336 336 335 335 334 333 332 329 328 329 329 328 327 326 326 327 327 326 326 325 324 324 322 321
341 338 336 338 340 341 341 342 342 341 341 341 341 341 340 340 340 340 340 340 339 339 338 337 337 337 335 333 332 331 328 329 331 332 331 330 328 326 328 332 335 336 335 334 334 334 333 333 332 330 331 336 340 342 341 340 340 340 338 336 336 335 335 334 333 333 332 330 328 328 329 328 327 326 326 327 327 327 326 325 324 324 323 322 320
343 341 339 339 340 340 340 341 341 342 341 341 342 342 341 341 340 340 339 339 338 338 337 336 336 337 335 332 331 330 330 332 334 333 332 332 329 326 328 332 335 335 334 333 334 335 335 334 334 334 334 337 338 338 338 338 338 337 336 335 335 335 334 333 332 331 330 329 328 328 327 327 326 327 327 327 326 325 325 324 323 322 321 320 318
342 342 342 341 341 341 341 341 341 341 342 342 342 341 341 340 340 340 340 339 338 338 338 338 337 337 336 333 331 330 330 332 334 334 334 333 331 329 327 329 333 334 332 332 334 335 335 334 335 335 336 336 337 337 338 337 335 334 334 334 334 333 332 331 330 329 328 328 327 327 327 327 327 327 327 326 324 323 322 322 321 320 319 317 317
338 339 340 340 340 340 340 339 340 340 340 339 339 339 339 339 339 340 340 339 338 338 338 338 337 337 337 336 334 333 332 333 334 334 334 333 332 331 329 328 331 333 332 330 332 334 335 334 334 335 335 335 334 335 335 335 334 334 333 333 332 331 330 329 328 328 327 327 327 327 327 326 326 325 324 323 322 320 320 319 319 318 317 316 316
337 337 337 337 337 338 337 337 337 337 337 337 337 337 338 338 338 339 339 338 338 338 337 337 337 337 336 336 336 335 335 335 334 333 333 333 333 333 332 330 331 333 333 330 328 331 334 335 334 334 335 335 334 335 334 334 334 335 333 332 331 329 328 327 327 328 328 327 327 327 326 325 324 323 322 321 319 318 318 318 317 317 316 316 315
334 334 334 335 334 334 334 334 334 335 335 335 335 336 336 336 337 337 337 337 337 337 336 336 336 336 335 336 336 335 335 335 335 333 333 333 334 334 334 333 332 333 334 333 330 328 331 331 329 328 329 330 332 334 334 333 333 333 332 331 330 329 328 328 328 328 327 326 326 325 324 323 322 322 320 319 318 317 317 317 316 316 316 315 315
332 332 332 332 332 332 332 332 332 332 333 333 333 333 333 333 334 334 334 335 335 334 335 335 336 335 335 335 335 333 333 334 334 334 333 334 334 334 334 334 333 332 333 334 334 333 332 331 330 328 327 328 331 333 333 332 331 331 330 330 329 328 329 329 329 327 326 324 324 323 322 322 321 321 319 318 317 317 316 316 316 315 315 315 315
329 330 330 330 331 331 331 331 330 331 331 331 330 330 330 330 330 330 331 331 332 332 332 333 334 334 335 335 333 332 332 333 333 334 334 334 334 334 333 334 334 333 332 333 335 335 334 333 333 332 330 330 331 332 331 331 330 329 329 328 328 328 328 327 326 325 324 323 323 323 322 321 320 319 317 316 316 316 316 316 316 315 315 314 314
327 327 327 328 328 329 329 328 328 328 328 328 327 327 327 327 328 328 328 328 328 329 329 330 331 333 334 333 332 331 332 332 332 332 333 333 333 333 333 333 334 333 333 333 333 333 333 333 333 332 331 331 330 330 330 330 329 329 329 328 327 327 326 325 325 324 323 323 323 322 321 319 318 317 316 316 316 315 315 315 315 315 314 313 312
324 324 324 325 325 325 325 325 324 324 325 324 324 325 325 326 326 327 327 327 327 327 327 327 328 330 331 331 330 331 331 331 331 330 331 331 331 332 332 332 331 331 332 331 331 330 330 330 330 329 329 330 330 329 330 329 329 329 327 326 325 325 325 325 325 325 324 323 322 320 318 317 316 316 315 315 315 315 314 314 314 313 312 312 311
320 321 321 321 321 321 321 321 321 321 321 322 322 323 325 325 325 326 326 326 326 326 326 326 327 328 328 328 329 330 330 330 329 328 329 330 331 332 332 330 330 330 330 329 329 329 329 329 329 329 329 330 330 330 330 329 328 326 326 325 325 325 325 325 323 322 320 319 317 316 315 316 316 316 315 314 314 313 313 312 312 312 311 310 309
318 318 318 318 318 318 318 318 318 318 319 320 321 322 322 323 323 324 324 324 324 324 325 325 326 326 326 326 327 328 328 328 328 328 329 329 329 330 330 330 330 330 329 329 330 330 329 329 330 329 330 330 330 329 328 326 325 325 325 325 324 323 322 321 319 317 315 313 313 314 314 315 315 314 313 312 312 312 311 311 311 310 309 308 308
Wind_Speed
48 49 49 49 49 48 47 46 45 44 44 44 45 44 43 42 41 39 37 36 35 35 35 34 33 33 32 31 31 31 31 31 29 28 27 26 25 23 22 23 24 24 24 22 21 21 23 24 24 24 24 23 23 20 18 19 20 18 18 17 16 16 16 16 15 13 11 11 10 10 9 10 11 12 12 12 13 13 12 13 14 14 13 13 13
48 49 50 51 51 50 49 48 46 46 45 45 46 46 44 43 42 40 38 37 36 36 36 35 34 33 32 32 32 31 32 32 31 31 30 29 27 26 25 25 24 24 24 23 23 23 24 25 25 24 25 24 24 22 19 18 19 19 19 18 18 17 17 17 17 15 14 13 13 13 12 12 12 14 15 13 13 14 14 13 14 15 14 12 12
47 48 49 50 51 50 50 50 49 48 47 47 47 46 46 45 43 41 40 39 37 37 37 35 35 33 32 32 32 31 31 32 32 32 32 32 30 28 27 27 26 26 25 24 24 25 26 26 26 25 25 26 25 24 21 19 19 19 20 19 18 17 17 18 18 16 15 14 14 15 14 14 14 14 15 15 14 14 16 15 14 14 14 13 13
47 48 48 49 49 50 51 51 50 49 49 48 48 47 46 44 43 43 41 39 38 38 38 37 36 36 34 32 32 31 31 32 33 33 33 34 33 30 29 28 29 29 28 26 26 27 27 28 27 26 26 27 26 26 24 23 21 21 21 21 20 19 18 18 19 18 16 14 14 15 14 14 15 15 15 15 15 15 17 16 15 15 15 15 14
45 48 48 48 49 50 50 51 51 51 50 49 48 48 46 42 41 43 43 41 39 39 39 39 39 38 37 35 33 33 33 35 35 34 34 35 34 33 31 30 30 30 30 28 28 28 29 29 29 28 28 28 28 27 26 26 25 23 23 23 22 22 20 19 19 19 19 17 15 15 15 15 15 15 15 15 15 16 17 17 17 16 16 15 14
44 47 47 47 48 49 50 51 51 51 50 49 48 47 44 40 38 39 42 43 41 39 39 40 40 39 38 37 35 35 35 36 37 36 35 35 36 35 33 32 32 32 31 30 29 30 30 30 30 30 30 30 30 29 27 26 26 26 25 24 23 23 22 21 20 19 20 20 18 16 16 16 16 16 17 17 16 16 16 17 17 17 17 17 15
42 45 46 47 48 49 49 50 50 50 50 49 48 46 43 41 38 36 37 40 42 40 38 39 41 40 39 38 37 36 36 36 38 38 38 37 37 36 35 34 33 33 33 32 32 32 32 31 31 32 32 32 32 31 29 27 27 27 26 25 25 23 22 21 21 21 20 20 20 18 17 17 17 17 17 17 17 17 16 16 17 17 17 17 17
40 43 45 46 47 48 48 48 48 48 48 48 48 46 44 41 39 37 36 37 40 41 38 38 40 41 40 39 39 38 38 38 39 40 40 39 38 37 37 36 34 34 33 34 34 33 32 32 33 33 33 33 33 32 31 29 28 27 27 26 25 25 23 21 21 21 21 20 20 19 18 17 18 17 17 16 18 19 19 18 18 18 17 17 18
39 41 44 47 47 48 47 46 46 46 46 46 46 46 44 43 41 39 38 36 37 39 38 36 37 41 42 41 40 40 40 40 41 41 41 41 40 39 39 38 37 35 32 33 35 35 33 33 33 33 34 34 34 33 32 31 30 29 28 28 27 26 25 23 22 21 21 21 20 19 18 18 19 19 18 19 20 20 19 18 19 19 17 17 18
39 40 43 47 48 47 47 46 46 45 45 46 45 45 44 44 42 41 39 37 36 37 37 35 34 37 41 42 41 41 42 43 43 42 42 42 42 41 40 39 39 37 34 34 37 37 35 34 33 33 34 34 34 34 32 31 31 30 29 28 28 28 27 26 24 22 22 22 21 19 19 19 19 19 20 21 20 19 18 18 18 17 16 17 18
39 41 42 44 46 47 48 47 46 46 46 46 46 45 44 44 43 42 41 40 38 37 38 37 35 34 36 40 42 42 43 44 45 44 42 42 42 42 42 41 40 39 38 38 40 39 38 37 36 35 36 36 36 36 34 32 31 31 30 29 30 29 28 28 25 22 23 24 22 20 19 19 19 20 20 20 20 19 18 18 18 17 16 18 18
38 41 42 43 45 47 48 48 48 47 47 46 46 46 45 45 45 44 44 44 42 41 41 42 41 37 34 35 38 42 43 44 45 45 43 43 43 43 43 42 42 41 40 40 42 42 41 40 39 38 39 40 39 38 36 34 32 31 31 31 32 31 30 30 28 24 23 24 23 21 20 19 19 20 21 20 20 20 19 19 18 17 17 18 18
36 39 41 43 45 47 47 48 48 47 47 46 45 45 45 45 45 46 46 45 44 44 45 45 45 43 39 36 36 39 42 44 45 45 44 43 43 43 43 43 43 43 41 40 42 44 45 44 43 43 42 42 42 41 39 36 34 33 32 32 33 34 33 32 31 27 24 24 25 23 21 20 20 20 21 21 21 20 21 20 18 18 19 19 18
36 38 41 43 44 45 45 46 46 46 46 45 44 44 44 44 43 44 44 44 44 45 46 46 45 46 45 41 39 38 40 42 45 45 45 44 43 43 43 44 44 44 43 42 43 45 46 47 46 46 45 44 44 43 41 40 37 35 35 35 34 35 35 34 34 32 29 28 27 25 22 21 21 21 21 22 22 22 22 20 17 18 19 18 18
37 38 40 43 44 44 45 44 44 44 44 44 44 43 43 42 42 42 43 43 44 45 45 46 46 46 46 44 43 41 41 41 43 45 44 43 43 42 42 44 45 45 45 46 46 46 46 47 48 48 47 46 46 45 43 42 40 37 36 37 36 36 37 37 37 36 34 32 32 30 27 23 21 21 22 23 24 25 23 21 19 19 19 18 18
38 39 40 43 44 44 44 43 43 43 42 42 42 42 42 42 41 41 42 41 42 43 43 45 45 45 45 45 44 45 43 42 43 45 45 43 41 41 42 43 45 46 46 46 46 47 48 48 48 49 49 48 47 46 44 42 42 40 38 37 37 36 37 39 39 37 35 33 32 32 33 30 24 23 24 24 25 24 22 20 20 20 21 21 19
40 41 41 42 42 42 43 42 42 42 41 41 41 41 41 41 40 41 41 41 40 41 41 42 42 42 43 44 45 46 44 42 43 44 45 44 42 41 42 43 44 47 47 46 44 44 47 49 50 49 49 50 50 47 44 42 42 41 39 38 38 37 38 39 39 37 34 32 31 32 35 36 32 28 27 27 26 23 19 18 16 16 18 19 17
41 42 42 41 40 40 40 40 40 41 40 41 40 40 39 39 39 39 40 39 38 37 36 35 37 39 40 40 41 42 41 41 42 43 44 44 43 42 43 43 45 47 49 50 48 45 44 47 50 47 42 45 51 50 45 43 43 42 41 39 39 39 38 37 35 34 32 31 31 32 35 38 37 34 31 30 28 25 22 19 16 14 15 16 14
39 40 40 38 36 36 37 37 38 39 39 39 39 38 38 38 37 37 37 37 36 34 31 31 32 33 35 35 36 38 38 38 40 42 43 43 43 43 43 45 47 49 50 51 52 51 47 44 46 46 40 41 49 51 47 45 45 44 44 42 41 41 38 32 30 31 31 29 30 32 33 36 38 38 36 33 30 29 27 24 19 16 16 15 14
32 34 35 34 33 33 34 34 35 36 36 36 36 36 36 35 35 35 35 34 33 31 29 29 29 29 30 30 31 34 35 35 37 39 41 41 42 43 43 45 48 50 51 50 51 53 52 43 41 47 46 43 48 51 48 46 45 45 46 47 46 44 38 31 28 30 30 29 28 28 29 32 36 38 38 36 34 31 30 29 25 21 18 16 15
27 30 31 32 31 32 32 33 33 33 32 32 33 33 33 33 32 32 30 27 26 26 26 27 27 27 27 27 28 30 31 32 35 38 40 41 41 42 43 45 47 47 46 46 49 54 53 44 41 48 50 45 48 53 50 47 45 44 46 50 49 44 37 31 29 30 29 28 28 27 26 27 31 31 31 33 35 34 32 30 27 24 20 16 16
24 27 28 29 29 28 29 30 29 29 28 28 29 29 29 28 27 26 25 24 24 25 26 26 26 25 26 26 28 29 29 30 33 35 38 39 40 42 43 44 45 44 41 42 48 53 53 44 39 46 52 48 47 52 53 50 46 44 46 49 47 43 37 31 29 30 30 27 28 29 26 24 23 22 22 24 28 31 32 31 31 28 21 16 18
20 23 24 25 25 24 24 24 24 23 23 24 25 25 26 26 25 25 25 24 24 25 24 24 24 24 24 25 26 28 28 28 31 34 36 37 38 40 42 41 41 43 43 45 49 51 52 47 41 42 49 50 50 51 52 52 49 45 45 47 46 43 38 31 30 32 30 27 27 28 27 24 21 21 22 24 23 23 24 25 26 26 23 20 21
17 19 20 21 21 21 19 20 20 19 20 21 22 22 22 22 22 23 24 23 22 23 22 21 21 23 24 24 25 26 26 26 29 32 34 37 38 39 40 40 40 41 43 46 48 46 44 44 43 42 43 47 51 52 52 52 50 47 46 46 45 43 39 34 33 34 32 28 27 28 28 25 23 23 25 26 25 23 21 20 19 19 21 22 22
13 15 16 17 18 18 17 17 17 17 17 18 19 19 19 18 18 18 18 18 18 20 21 21 22 23 23 23 24 25 25 25 27 30 32 35 37 38 39 40 40 42 43 45 47 45 40 38 39 41 42 44 47 50 52 51 48 47 47 45 44 44 41 37 36 36 35 32 30 28 27 25 25 25 25 25 24 24 25 23 17 16 19 21 22
12 12 13 13 14 15 15 15 15 15 15 14 14 15 15 15 15 14 15 15 16 18 19 19 20 20 22 23 23 24 24 24 25 27 30 33 35 35 37 37 38 40 43 44 46 46 45 42 39 40 42 45 45 47 49 48 46 47 48 45 45 47 45 42 41 40 38 35 31 27 25 25 26 25 25 25 25 26 27 24 20 20 24 23 22
10 11 11 10 12 13 13 13 13 13 13 12 11 12 12 13 14 14 15 16 16 17 18 18 18 19 20 22 22 23 24 23 22 23 26 29 31 33 35 38 38 39 42 43 43 43 43 45 44 42 43 45 44 44 45 46 45 48 49 48 47 48 47 45 44 42 39 33 29 27 26 26 26 25 26 28 27 27 28 27 25 26 25 23 21
9 11 11 9 10 11 12 12 11 10 10 11 11 12 12 12 13 14 16 18 17 17 17 16 17 17 17 18 19 20 20 20 21 21 22 24 26 28 31 36 39 41 43 44 44 41 40 43 49 49 45 43 43 43 44 45 47 49 51 51 50 47 46 45 44 43 39 32 27 27 28 27 26 27 29 30 29 29 29 29 28 26 23 22 22
11 12 11 10 12 12 10 11 12 10 10 12 14 16 15 14 14 15 17 19 20 19 18 17 15 13 12 13 16 18 19 20 22 23 23 24 24 24 26 31 35 39 41 42 44 45 45 49 55 55 49 44 44 46 47 47 49 50 51 53 53 50 49 48 46 44 42 36 32 31 30 29 29 30 30 30 31 32 31 29 28 25 22 22 22
10 10 10 11 13 12 10 13 17 15 11 9 11 15 17 17 16 16 16 16 18 19 20 20 20 19 18 19 21 23 25 27 29 31 32 34 34 33 35 39 42 43 44 43 43 45 49 55 60 59 55 49 48 50 52 51 52 53 53 55 57 55 53 52 49 47 42 38 37 36 34 33 32 31 30 31 32 31 28 27 27 26 24 22 20
11 10 10 10 11 9 7 11 17 16 11 6 6 9 12 15 17 18 18 17 17 18 19 19 21 21 21 21 22 23 23 25 28 31 33 36 38 40 42 46 50 52 53 51 47 47 51 56 58 58 58 56 55 58 60 58 57 57 57 59 61 59 57 55 52 48 44 40 40 39 37 35 34 32 30 29 29 27 26 25 27 28 26 24 20
12 12 12 12 13 11 9 10 11 11 9 7 7 7 5 6 9 12 13 12 12 12 12 12 12 13 13 13 14 15 17 18 21 24 26 28 30 33 36 41 46 49 52 51 50 52 56 58 58 59 62 63 64 66 66 65 64 62 61 64 65 63 60 58 54 50 47 44 42 42 39 37 36 34 30 26 25 26 27 27 27 28 27 24 20
13 14 15 15 14 14 13 13 13 11 11 11 10 9 8 6 6 5 5 5 5 4 3 3 3 4 6 8 10 11 13 15 17 20 22 23 24 26 29 34 38 42 46 48 52 57 61 62 61 63 66 68 68 69 70 70 69 66 65 68 70 66 62 59 55 52 51 46 43 43 42 39 36 33 29 27 27 27 28 28 27 26 25 23 20
14 16 16 16 16 16 15 14 14 14 13 12 11 9 8 8 7 5 4 3 1 1 2 4 6 8 9 10 11 12 14 18 20 22 24 25 25 27 29 31 33 36 40 43 48 54 60 62 63 66 69 71 71 70 71 72 70 67 67 69 69 66 61 57 54 54 51 47 45 45 42 39 37 33 30 29 29 28 27 27 26 24 22 21 20
16 17 18 17 16 15 14 13 14 14 14 12 9 7 6 6 5 4 3 2 2 4 6 7 10 13 13 13 13 15 18 21 23 24 26 28 29 30 32 33 34 35 36 38 41 46 52 58 64 67 70 73 74 73 73 73 69 67 67 68 68 66 61 57 55 54 50 47 48 47 43 39 37 35 32 31 30 29 28 28 27 24 22 21 20
14 14 15 14 13 13 13 13 13 13 13 11 7 5 5 4 4 3 3 3 3 5 5 6 10 14 16 15 16 17 20 23 25 26 29 30 30 32 35 36 36 38 40 41 41 43 45 50 58 66 71 75 77 77 77 75 72 70 70 71 70 68 64 59 56 54 51 49 48 45 41 38 35 33 32 31 30 29 29 28 27 25 22 20 20
10 10 10 11 11 10 11 11 11 10 10 8 6 5 4 3 3 3 3 3 5 6 7 7 11 13 14 15 18 20 22 24 26 28 30 31 32 35 40 41 40 42 43 43 41 41 43 45 50 60 68 73 75 77 78 77 75 73 70 70 70 69 65 60 55 52 52 50 46 42 40 38 34 31 31 31 30 30 29 27 25 24 22 21 21
11 10 10 11 10 9 8 8 8 8 7 6 5 4 3 3 3 4 4 5 6 7 8 9 12 12 12 15 19 21 23 25 26 27 28 30 32 36 41 42 43 44 43 41 38 37 40 42 42 48 59 66 68 71 72 72 73 71 66 62 64 65 63 57 53 51 50 47 44 41 40 38 34 30 29 29 30 30 28 25 24 22 21 22 23
9 9 10 11 10 8 8 7 7 6 6 4 3 3 3 3 3 4 5 5 6 7 8 9 11 12 13 16 20 23 25 26 25 24 26 28 30 33 36 39 41 42 41 42 42 40 39 38 35 37 47 57 62 64 64 64 66 67 64 61 61 60 58 55 53 51 48 44 42 41 37 34 31 30 30 30 28 27 26 25 23 21 20 21 23
7 8 10 12 11 9 8 7 6 4 4 3 2 2 2 3 4 5 5 6 7 8 10 11 12 14 15 17 19 22 25 24 22 21 23 25 27 29 30 35 38 37 36 41 43 39 36 33 30 30 36 46 54 56 58 63 65 63 62 61 60 58 56 53 51 49 45 42 39 37 34 31 30 29 30 29 27 25 25 24 22 20 20 20 21
6 6 8 10 10 8 6 5 4 3 2 2 2 2 2 4 5 6 7 8 9 10 12 13 13 15 17 16 17 19 21 20 20 20 19 21 24 25 26 30 33 31 30 34 32 24 22 25 28 30 31 35 43 45 46 53 59 59 58 58 57 56 55 53 49 45 41 37 33 31 31 31 31 30 29 28 25 24 24 23 21 20 20 19 18
7 7 8 8 8 7 5 3 3 3 3 3 3 4 4 5 6 8 8 10 11 11 12 13 13 14 17 18 17 17 18 18 18 18 17 18 22 23 23 25 27 25 27 30 25 15 11 10 11 16 17 25 42 49 49 51 54 54 53 54 53 52 51 49 45 41 37 32 30 31 31 31 30 29 28 26 24 22 22 21 21 20 20 20 18
7 8 8 8 7 7 6 5 5 5 5 5 5 6 7 8 9 10 10 11 12 12 12 14 14 14 16 19 18 16 16 16 16 16 17 19 21 21 21 21 21 20 23 27 26 19 14 14 14 12 14 23 34 44 49 53 52 49 48 48 47 45 44 43 40 37 35 32 31 31 31 30 29 27 25 24 24 22 20 20 20 19 19 19 19
8 7 7 8 8 8 8 8 8 8 8 8 8 8 9 9 10 11 11 12 12 12 13 14 14 15 16 17 15 13 14 15 15 16 18 20 21 21 20 18 17 16 15 18 20 20 21 25 29 28 25 23 26 32 38 42 43 42 41 40 38 37 37 36 35 34 34 34 32 31 29 28 27 26 24 23 23 21 19 19 19 19 18 19 18
8 7 7 8 9 9 9 9 10 10 11 11 11 11 11 11 11 11 11 12 13 14 14 14 14 15 15 15 14 13 13 14 14 15 18 19 19 19 19 16 14 14 12 9 10 14 19 25 26 24 21 18 17 22 28 32 33 34 33 32 32 33 33 33 32 33 33 32 30 28 27 26 26 25 24 22 21 20 18 18 19 18 18 18 18
10 9 10 11 11 11 11 11 11 12 12 12 12 12 11 11 11 11 11 12 12 13 14 14 14 15 15 15 16 16 15 14 14 16 17 18 17 17 16 13 11 13 12 6 4 7 12 16 17 17 17 17 17 21 26 29 29 30 30 30 31 32 31 31 31 31 30 28 27 26 25 24 23 22 21 20 20 19 17 16 17 18 18 17 17
11 11 12 13 13 12 12 12 12 12 12 13 13 13 12 12 12 11 11 12 13 13 14 13 13 14 15 15 17 18 17 15 15 15 15 14 13 12 12 10 9 10 11 7 2 7 10 13 17 20 22 22 23 25 28 28 28 29 30 29 29 30 30 29 29 29 27 26 25 24 23 21 20 19 18 17 17 18 17 16 16 18 18 18 17
14 14 14 14 14 13 13 13 13 14 14 14 14 14 13 12 12 11 12 13 13 15 15 14 13 12 12 12 14 16 16 14 13 11 10 10 9 9 8 7 6 7 7 6 6 8 10 13 17 20 21 23 24 26 27 28 28 29 29 28 27 28 28 28 28 27 25 24 22 21 19 19 18 17 17 17 16 16 17 17 16 16 17 17 16
17 17 17 17 16 15 15 15 15 15 15 15 15 14 14 14 13 13 13 12 12 12 14 14 13 11 10 11 13 14 14 11 9 8 7 8 8 6 5 4 3 2 3 5 8 11 13 15 18 20 23 26 27 27 28 28 27 28 27 27 26 26 25 24 23 22 21 20 19 18 17 16 16 15 16 18 16 15 16 17 16 15 16 16 15
20 20 20 19 19 18 18 18 17 17 16 15 15 15 16 16 17 17 16 14 12 11 11 12 12 11 11 11 12 10 9 7 6 6 7 7 7 7 4 0 2 3 5 7 10 13 16 19 20 21 22 23 24 24 25 25 25 25 25 24 23 21 19 17 15 14 14 16 17 17 16 15 15 15 16 17 17 15 15 16 16 15 15 15 15
22 22 22 22 22 21 21 21 20 19 18 17 16 15 17 19 21 21 19 17 15 13 12 11 10 9 9 9 8 7 6 5 5 7 7 6 7 9 7 4 5 6 7 9 11 13 16 19 21 22 22 22 22 23 23 23 21 20 19 18 16 14 13 12 11 11 13 14 16 17 17 16 15 15 15 16 17 16 15 15 15 14 14 14 14
Wind_Direction
222 222 223 224 225 226 227 228 229 229 231 233 234 236 237 237 238 239 239 240 240 241 241 240 240 239 239 239 237 237 238 240 239 236 235 237 237 237 237 234 230 228 231 233 229 226 229 231 232 235 234 228 225 220 217 229 236 230 228 229 228 229 226 221 221 225 226 226 227 224 226 239 251 250 236 229 247 257 245 236 244 252 253 253 259
222 223 223 225 226 227 228 229 230 231 231 233 235 237 238 238 238 236 237 239 239 240 241 241 241 239 239 240 238 236 238 240 241 240 238 240 240 237 237 237 235 231 230 230 230 231 233 235 237 239 241 237 232 226 217 222 233 232 228 227 226 228 231 229 223 224 229 229 228 230 228 224 233 250 251 236 236 251 256 247 244 252 255 245 245
221 223 224 225 226 227 229 230 231 233 233 233 235 236 238 238 238 237 236 237 238 239 240 241 242 241 239 239 238 236 236 239 241 241 241 242 242 239 237 238 237 234 233 231 231 234 236 239 240 241 243 243 240 235 225 218 224 229 228 225 223 223 228 233 228 222 226 231 229 230 235 233 227 234 247 246 235 235 249 255 248 245 251 243 234
219 223 224 225 226 227 228 230 231 233 233 234 234 236 237 237 239 239 238 236 236 238 240 241 242 243 242 240 239 237 235 238 240 239 241 243 243 240 238 238 239 239 239 237 235 237 240 242 243 242 243 245 245 242 235 226 222 224 227 226 223 220 219 228 233 229 224 227 230 231 233 234 232 228 232 240 240 233 237 248 247 241 245 245 238
215 222 225 225 226 227 228 229 231 232 234 234 235 236 235 233 235 240 241 239 235 235 239 241 241 242 243 240 239 239 238 239 240 238 240 243 244 242 239 239 240 242 243 241 239 240 243 245 246 244 242 244 246 246 242 237 231 228 230 231 230 227 222 221 229 233 231 227 227 231 231 227 229 231 226 228 236 237 235 239 242 242 245 246 243
211 220 225 225 226 228 228 229 230 231 233 234 234 235 232 228 228 234 240 241 237 233 235 239 241 241 242 241 240 240 239 240 241 240 240 242 243 243 241 240 240 242 243 243 242 243 245 247 246 245 243 242 245 247 246 243 239 236 235 234 235 234 230 226 224 227 234 235 231 230 232 231 228 229 229 227 227 231 235 238 241 242 243 245 245
207 216 222 224 226 228 229 230 230 231 233 234 233 233 231 227 223 225 233 239 239 235 231 235 241 242 242 241 240 240 240 239 240 241 240 241 242 243 242 241 241 242 243 243 243 245 246 247 247 245 244 243 243 246 247 245 243 242 240 239 237 235 231 228 226 225 229 235 235 231 231 235 234 231 232 231 228 227 229 235 241 244 247 249 251
203 211 219 222 226 229 230 231 232 232 233 234 234 232 230 228 224 222 225 232 239 238 232 231 238 242 242 241 241 240 240 239 239 239 240 240 241 242 243 242 240 241 242 242 242 243 244 247 248 247 246 245 244 244 246 246 244 243 243 241 238 236 232 226 224 224 226 229 232 230 229 231 233 233 232 230 229 231 233 234 237 243 249 253 258
202 207 215 221 225 229 230 231 232 232 233 234 235 234 231 230 227 224 222 225 232 238 234 228 232 240 243 242 241 241 240 240 239 238 239 240 240 241 243 242 241 239 238 240 242 243 241 242 245 247 247 246 245 245 245 246 246 245 244 242 240 238 235 229 222 222 224 226 227 226 226 228 230 231 230 229 233 238 242 243 243 244 246 246 254
205 207 214 221 225 227 230 231 232 232 232 232 234 235 233 231 229 227 223 221 225 232 232 226 224 232 241 243 242 241 241 241 240 239 239 240 241 242 242 242 242 238 236 239 243 243 241 240 241 245 247 247 247 247 246 245 246 245 244 242 241 240 238 234 226 222 222 224 224 224 223 226 229 232 232 234 239 240 236 238 244 246 243 241 248
209 210 214 220 224 226 230 232 233 233 233 233 233 235 235 232 230 228 226 224 224 228 230 228 223 223 232 240 242 242 241 241 242 242 241 240 242 243 242 242 242 240 238 241 244 243 242 242 241 242 245 247 247 249 249 246 244 244 242 240 240 242 241 237 231 226 224 225 223 222 224 228 232 236 238 239 240 238 231 232 239 240 237 242 248
211 213 213 217 223 227 230 233 234 235 235 235 234 235 236 235 233 231 230 230 228 228 230 233 232 227 224 230 238 242 243 242 242 243 243 241 241 242 243 243 243 241 240 242 244 244 243 242 242 242 244 246 247 248 249 247 244 242 240 238 239 242 242 240 236 230 226 225 225 223 224 230 236 237 238 238 239 239 234 231 235 237 237 244 250
210 213 213 216 223 228 230 232 235 236 237 237 235 235 237 237 236 235 235 233 232 233 235 237 239 237 231 226 229 238 243 245 244 243 243 243 241 241 242 243 243 243 241 241 243 245 244 243 242 242 243 245 246 246 247 247 244 241 239 237 237 240 241 241 240 235 228 227 230 230 226 229 235 235 236 238 239 238 236 232 234 240 243 248 255
209 213 215 218 223 227 229 232 234 236 237 236 236 237 239 240 239 238 236 235 235 237 238 239 241 243 241 235 231 232 238 243 246 246 244 243 242 241 241 242 244 245 243 243 246 248 248 246 244 243 243 243 244 244 245 246 243 240 238 236 235 237 239 239 239 237 231 228 230 232 229 228 232 234 234 236 235 232 234 234 236 243 248 252 258
209 212 216 219 223 226 229 231 232 233 235 236 237 239 241 242 242 240 238 237 238 240 241 241 242 244 245 242 237 235 235 239 245 247 247 245 243 242 241 242 243 244 244 246 250 251 249 249 247 246 244 244 245 245 244 245 244 240 237 237 236 236 239 240 240 238 236 233 232 234 232 227 228 233 232 232 232 231 233 235 236 240 244 249 258
210 212 217 221 224 226 229 230 231 233 234 236 238 240 241 242 242 241 239 238 239 241 242 243 244 244 245 246 244 242 241 239 242 246 249 248 245 243 243 242 241 242 243 245 248 250 250 249 248 247 245 245 247 247 245 245 245 242 239 237 237 236 239 242 243 241 240 239 238 237 235 230 227 228 227 227 230 231 231 235 237 239 243 251 260
213 213 217 222 224 226 228 230 232 233 234 236 239 240 240 241 241 241 240 237 236 239 241 244 245 245 245 247 248 248 246 243 243 246 248 248 247 244 244 243 242 243 243 244 245 247 248 248 246 245 245 245 246 247 245 243 244 244 241 238 237 237 238 241 243 243 240 239 239 238 236 233 228 225 223 224 227 227 224 225 227 232 243 255 260
217 216 219 222 224 226 229 231 232 234 235 236 237 237 238 239 239 239 240 238 236 236 237 239 243 246 246 246 247 248 248 246 247 248 248 248 247 246 244 244 244 244 245 245 245 244 246 247 245 243 241 242 244 246 243 241 240 241 240 238 236 236 237 236 239 241 238 236 237 236 235 235 232 228 226 225 227 228 223 220 222 226 236 246 248
218 220 220 221 224 226 228 229 231 234 235 236 237 237 238 239 238 239 242 242 240 236 233 234 237 242 245 245 245 247 248 247 249 250 249 248 247 246 245 243 244 245 245 246 245 245 245 245 245 242 237 237 243 245 242 239 238 236 236 236 234 235 235 230 230 235 235 231 231 233 234 234 232 230 230 229 229 229 226 226 229 229 231 237 237
215 218 218 218 221 224 227 230 234 237 238 239 239 240 241 240 240 242 243 243 240 235 231 232 234 237 240 242 243 246 247 244 245 249 251 250 248 246 244 243 244 245 245 245 245 247 246 243 241 242 240 237 241 243 242 240 238 234 232 233 233 233 231 226 225 230 231 230 232 236 236 234 231 230 231 232 231 228 228 231 232 230 230 231 231
212 214 216 219 222 225 230 236 239 240 240 241 241 242 242 240 238 238 237 233 232 231 229 231 234 235 238 239 240 242 243 242 243 248 252 252 250 247 245 245 246 245 243 244 246 247 248 243 239 243 243 239 239 241 241 241 240 234 231 233 234 232 226 222 224 227 227 227 231 235 235 231 228 226 227 232 232 229 228 230 231 229 226 225 231
210 211 214 217 219 222 227 232 236 235 234 235 237 238 239 235 229 228 228 225 226 229 232 235 236 237 239 241 241 242 243 243 245 248 251 252 251 250 248 249 249 246 243 245 248 248 248 244 238 240 243 241 240 240 240 241 240 235 232 233 232 230 225 219 219 224 224 223 224 226 226 223 218 215 218 226 231 231 230 230 230 228 220 219 238
206 206 208 210 210 211 215 219 222 221 219 223 228 231 234 233 228 228 231 229 228 229 234 238 239 240 242 243 244 245 245 244 246 249 252 253 253 253 252 251 251 249 247 249 252 251 250 246 240 239 242 242 243 241 240 241 240 235 232 230 229 228 223 214 214 220 220 217 218 218 217 213 209 208 211 214 219 225 228 228 229 228 218 214 229
195 197 200 204 204 203 204 207 209 209 208 213 222 227 231 233 232 232 233 231 230 233 236 239 241 243 246 245 246 248 247 245 247 250 254 255 255 256 255 254 252 250 249 252 253 251 250 247 243 241 241 243 244 243 241 242 242 235 229 226 225 224 219 210 213 219 216 214 216 214 210 207 207 208 208 208 210 214 215 215 217 221 222 220 220
186 190 193 197 199 197 198 199 201 202 204 210 218 223 227 228 226 227 229 230 233 236 239 241 243 245 248 249 251 251 251 250 251 253 256 258 259 259 260 259 258 256 254 255 255 251 249 247 244 243 244 243 243 243 241 241 240 234 226 222 220 221 216 210 212 217 214 211 213 210 205 206 209 208 206 207 210 210 210 210 205 206 220 226 222
177 180 180 185 187 186 189 193 196 198 200 203 211 216 218 219 218 221 225 227 231 235 237 240 243 246 250 253 254 256 255 255 254 255 259 262 262 263 263 262 262 260 259 260 260 256 255 252 245 242 243 242 240 240 240 239 237 232 226 221 218 217 215 210 210 215 214 210 208 206 205 207 207 205 205 206 208 210 209 207 201 205 216 220 221
171 168 164 169 174 174 179 183 186 194 196 195 203 210 213 216 220 223 227 229 232 235 238 240 242 245 250 254 257 259 260 259 258 258 260 264 266 267 266 264 262 260 258 258 259 258 258 257 252 246 243 241 239 240 240 238 235 230 225 221 217 215 214 211 210 214 215 209 202 202 204 203 201 203 206 205 206 211 212 206 203 209 214 214 217
150 151 150 155 161 165 173 176 174 181 186 188 199 207 209 213 217 219 223 226 227 230 234 238 241 245 251 255 257 259 259 259 259 259 259 261 266 269 270 268 266 264 262 261 260 258 258 256 251 246 243 240 237 235 234 234 231 228 225 221 216 213 212 211 210 212 211 202 195 200 202 199 198 204 208 207 206 211 213 211 210 212 210 209 214
141 145 149 153 153 149 155 167 170 171 176 187 200 205 201 200 203 210 217 222 225 228 231 235 238 242 248 254 256 260 263 261 260 260 260 260 263 268 271 272 271 269 268 268 266 262 255 249 244 241 239 238 235 232 229 229 229 227 223 220 216 211 208 207 206 207 206 198 192 198 202 198 199 206 209 208 208 211 215 217 216 213 208 209 214
131 133 141 154 157 149 148 164 172 169 161 168 195 207 209 208 209 215 223 226 228 232 236 240 247 252 258 264 266 271 275 275 272 271 270 269 269 268 269 271 272 272 272 272 270 265 255 247 241 237 233 233 234 232 228 227 228 226 221 218 214 209 206 205 203 202 202 195 189 194 200 199 199 204 207 208 209 212 216 220 217 210 206 209 212
124 124 128 141 149 146 145 162 172 174 167 158 178 203 218 223 224 230 241 246 246 248 251 255 260 263 267 272 274 276 279 282 281 281 280 280 279 277 274 273 272 272 272 270 267 265 258 248 240 234 230 230 232 232 230 228 227 225 220 215 212 207 204 203 200 197 195 190 185 190 197 198 199 204 205 205 209 212 212 213 213 210 208 209 211
121 119 119 121 124 124 123 132 147 159 160 153 153 161 183 216 220 226 239 247 250 255 260 262 265 269 275 280 282 283 284 286 287 287 285 284 284 282 279 276 273 273 273 268 261 259 258 251 240 232 230 230 229 229 229 229 227 223 217 211 208 206 203 200 196 193 191 187 184 188 193 195 198 203 202 199 204 208 207 207 211 212 211 211 214
108 109 111 114 114 115 118 119 119 123 122 120 123 128 127 124 133 149 167 179 189 200 206 219 259 296 308 308 309 311 311 309 308 306 304 300 295 291 286 282 279 279 278 273 264 258 255 250 242 234 231 231 230 226 225 226 224 220 214 208 205 203 200 197 193 190 188 187 185 187 190 191 194 198 198 196 200 203 204 207 211 211 210 213 219
107 109 113 114 111 110 112 114 117 121 122 116 112 116 121 119 113 111 115 121 139 290 316 322 325 333 337 331 327 329 329 327 327 329 331 328 321 313 305 299 294 290 286 282 276 266 257 250 244 238 233 231 229 225 222 222 220 216 211 206 203 199 196 192 189 187 187 189 187 186 187 188 190 194 195 194 195 198 201 206 209 208 207 212 218
111 114 115 113 110 110 113 116 121 125 123 116 110 108 109 104 96 87 75 62 6 334 332 325 320 326 333 335 334 334 333 332 334 337 339 337 333 329 324 318 313 308 301 295 289 280 268 255 246 241 236 232 228 224 220 218 217 213 207 202 199 195 191 188 187 187 188 190 187 184 184 185 188 193 195 192 193 197 201 204 208 209 208 210 215
101 105 107 106 106 111 117 120 125 126 121 114 106 100 93 78 64 46 26 10 337 329 329 312 307 318 328 332 333 333 332 333 336 340 341 339 337 337 337 332 326 320 315 308 301 294 284 268 253 244 239 234 229 223 218 215 213 210 205 199 195 191 187 186 186 186 187 187 184 182 181 182 187 194 195 191 192 199 203 205 207 210 213 214 214
107 105 106 107 107 110 114 118 119 116 109 102 93 86 77 59 41 26 12 354 335 331 330 319 315 322 328 328 329 330 330 333 338 342 343 344 346 348 348 345 339 332 326 318 309 301 296 285 266 249 241 236 229 222 216 213 210 207 201 195 190 187 183 181 182 184 184 183 181 180 180 182 189 195 193 190 193 200 205 207 209 213 219 218 213
114 118 120 117 111 106 103 102 99 88 79 75 70 63 55 39 21 6 352 338 332 332 330 324 324 325 323 324 331 335 333 334 339 342 342 344 348 350 350 350 348 341 332 325 317 307 299 294 278 256 244 239 232 222 213 207 202 198 194 188 183 180 179 179 181 183 182 180 179 180 182 185 191 194 190 190 196 202 206 209 212 213 215 215 212
82 95 106 107 102 96 89 82 74 66 64 62 49 39 32 16 3 356 347 335 327 325 325 322 324 324 320 324 334 339 338 338 339 338 337 338 342 347 349 350 348 342 331 323 318 309 300 296 285 264 250 244 235 223 210 199 192 188 185 181 177 176 177 178 179 180 179 177 176 178 182 183 186 188 190 192 197 203 207 210 211 210 210 212 212
77 83 93 93 87 76 69 67 62 53 50 41 24 18 3 344 337 336 334 327 320 317 318 319 319 316 313 320 331 337 339 339 335 331 331 334 340 347 351 349 347 344 333 322 316 308 299 294 284 269 258 248 235 218 199 187 183 179 176 175 175 175 176 176 176 176 177 175 173 176 181 182 183 187 193 195 198 204 208 208 207 208 209 210 210
84 79 84 90 89 76 62 60 55 40 26 11 355 342 334 330 325 320 318 315 312 310 308 308 310 309 309 316 329 334 334 334 330 326 329 335 340 348 352 351 352 357 354 343 333 319 305 295 282 273 265 244 222 203 182 171 171 170 169 170 171 171 170 171 173 174 174 173 174 178 181 182 183 188 194 195 198 204 207 206 204 205 206 207 209
66 65 64 70 76 73 62 53 44 31 19 8 358 349 341 331 323 320 315 309 308 307 303 302 306 307 306 312 322 328 331 332 328 324 327 332 335 342 348 349 354 8 17 12 3 351 334 319 287 263 241 203 187 181 172 165 162 162 162 163 164 164 165 168 171 173 173 174 179 181 180 180 184 190 193 195 196 199 202 203 203 203 204 206 209
56 59 57 54 55 53 45 35 28 17 6 2 357 346 339 334 330 327 321 315 313 313 308 307 311 310 306 310 320 327 330 329 324 323 327 327 326 330 338 342 347 5 23 25 21 19 29 51 75 103 131 144 150 154 156 157 156 157 158 159 160 162 163 165 169 172 173 175 179 179 177 180 186 189 192 196 197 197 199 202 203 203 204 205 206
53 55 56 56 53 45 33 27 24 15 8 6 1 351 345 344 338 332 328 323 321 319 315 314 317 316 313 314 319 322 323 322 320 322 326 325 322 323 328 332 338 349 9 22 26 33 53 69 75 79 89 104 118 129 139 147 152 157 159 160 160 161 162 164 168 171 172 174 176 176 177 182 187 188 192 198 198 195 197 200 200 201 203 203 205
55 59 59 56 52 45 34 28 26 23 18 16 13 6 1 357 349 341 337 334 327 322 319 318 319 320 321 319 316 316 320 322 319 318 322 326 326 323 320 319 322 328 341 8 30 45 66 80 82 79 80 89 105 124 138 147 152 155 157 160 163 165 165 166 169 170 171 173 176 176 178 185 191 193 198 203 200 194 195 200 200 200 203 204 205
55 58 57 54 52 46 37 31 30 28 26 23 19 13 7 5 1 354 347 341 334 329 326 323 322 325 327 320 312 314 322 324 316 311 317 328 331 323 314 311 309 310 317 337 73 90 93 102 109 112 114 118 125 136 146 154 157 158 160 163 165 166 165 166 168 169 170 174 179 180 182 190 198 200 202 204 200 193 193 200 203 202 202 204 204
56 56 55 52 51 49 43 38 37 37 34 30 26 22 17 11 5 358 352 348 345 340 336 331 328 330 329 319 311 316 326 328 317 311 317 329 333 324 315 314 308 299 296 290 191 140 132 135 137 135 135 140 147 152 156 160 161 161 161 162 164 164 165 165 167 168 171 178 185 188 191 198 203 200 195 195 196 194 195 199 203 202 203 205 205
55 56 56 55 54 51 46 43 43 43 40 35 29 26 22 14 5 0 0 1 1 357 352 344 334 332 335 328 319 321 328 327 321 321 328 331 329 327 325 324 315 294 275 248 194 161 150 150 148 144 143 147 152 155 157 159 160 160 161 162 163 165 166 167 170 173 179 187 194 198 200 200 197 192 190 190 192 194 195 198 201 202 202 204 205
56 56 56 55 53 51 48 46 45 44 42 36 30 27 24 21 18 16 14 10 9 8 3 353 341 335 338 333 324 325 331 330 327 339 349 342 336 341 342 329 314 284 239 204 174 159 153 151 150 149 149 150 152 154 157 159 160 162 163 164 165 168 172 176 180 184 190 197 202 202 198 191 187 187 190 191 191 192 195 197 199 200 200 200 202
54 54 54 53 51 50 49 48 46 45 44 42 37 34 34 35 33 29 24 18 10 3 357 352 347 344 345 340 335 339 348 348 349 5 9 4 13 33 43 98 173 143 150 158 157 155 156 158 157 156 154 154 156 159 162 164 164 165 166 167 170 173 177 181 186 192 201 205 204 197 188 181 181 186 191 191 190 192 196 198 198 200 202 202 203
51 51 52 52 51 50 50 49 47 46 48 48 45 41 41 41 38 33 30 29 24 16 7 1 357 355 359 3 8 16 17 13 30 43 38 29 34 45 58 109 144 145 148 151 153 158 162 161 158 157 159 163 167 168 167 165 162 161 163 165 167 171 177 183 190 198 205 208 204 196 187 180 180 183 186 188 191 196 200 200 199 200 202 203 203